Flag for France Weather past 2 weeks in Boulogne-Billancourt, France

Now
50 °F

Light rain. Partly cloudy.


Feels Like: 46 °F
Forecast: 50 / 58 °F
Wind: 10 mph from Southwest

Location: Paris-Orly

Current Time: Mar 29, 2015 at 7:16:50 AM

Latest Report: Mar 29, 2015 at 7:00 AM


Visibility: N/A

Pressure: 29.92 "Hg

Humidity: 94%

Dew point: 48 °F

Location of Boulogne-BillancourtLocation

Historic Weather in Boulogne-Billancourt — Graph

°F

Boulogne-Billancourt temperature yesterday

Maximum temperature yesterday: 61 °F (at 3:00 PM)
Minimum temperature yesterday: 43 °F (at 12:00 AM)
Average temperature yesterday: 51 °F

Past Weeks' High & Low Weather Summary

 TemperatureHumidityPressure
High64 °F (Mar 17, 3:00 PM)100% (Mar 17, 6:30 AM)30.39 "Hg (Mar 17, 6:30 AM)
Low30 °F (Mar 26, 4:00 AM)28% (Mar 17, 4:00 PM)29.74 "Hg (Mar 24, 3:30 PM)
Average45 °F75%30.10 "Hg
* Reported Mar 14 5:00 AM — Mar 29 6:00 AM, Boulogne-Billancourt, Weather by CustomWeather, © 2015

Note: Actual official high and low records may vary slightly from our data, if they occured in-between our weather recording intervals... More about our weather records

Advertising

Boulogne-Billancourt weather history for previous 24 hours

 ConditionsComfort  
Time TempWeatherWind HumidityBarometerVisibility
6:00 AM
Sun, Mar 29
52 °FLight rain. Partly cloudy.13 mph82%29.95 "HgN/A
5:30 AM52 °FPartly cloudy.12 mph82%29.95 "HgN/A
5:00 AM52 °FPartly cloudy.12 mph82%29.95 "HgN/A
4:30 AM52 °FPartly cloudy.13 mph88%29.95 "HgN/A
4:00 AM52 °FPassing clouds.9 mph88%29.95 "HgN/A
3:30 AM52 °FPartly cloudy.12 mph88%29.98 "HgN/A
3:00 AM52 °FPassing clouds.12 mph88%29.98 "HgN/A
1:30 AM52 °FPartly cloudy.12 mph88%29.98 "HgN/A
1:00 AM52 °FPartly cloudy.12 mph88%29.98 "HgN/A
12:30 AM52 °FPartly cloudy.14 mph88%29.98 "HgN/A
12:00 AM52 °FPassing clouds.12 mph94%30.01 "HgN/A
11:30 PM
Sat, Mar 28
52 °FLight rain. Partly cloudy.13 mph94%29.98 "HgN/A
11:00 PM54 °FLight rain. Passing clouds.13 mph88%30.01 "HgN/A
10:30 PM54 °FLight rain. Passing clouds.15 mph88%30.01 "HgN/A
10:00 PM54 °FLight rain. Partly cloudy.20 mph82%30.01 "HgN/A
9:30 PM55 °FPassing clouds.17 mph77%30.01 "HgN/A
9:00 PM55 °FPassing clouds.15 mph77%29.98 "HgN/A
8:30 PM55 °FPartly cloudy.15 mph77%30.01 "HgN/A
8:00 PM55 °FPassing clouds.18 mph77%30.01 "HgN/A
7:30 PM55 °FPassing clouds.18 mph77%30.01 "HgN/A
7:00 PM57 °FLight rain. Broken clouds.17 mph72%30.01 "HgN/A
6:30 PM57 °FBroken clouds.15 mph72%30.01 "HgN/A
6:00 PM59 °FScattered clouds.14 mph72%30.04 "HgN/A
5:30 PM59 °FBroken clouds.14 mph72%30.04 "HgN/A
5:00 PM61 °FBroken clouds.15 mph68%30.01 "HgN/A
4:30 PM61 °FBroken clouds.16 mph68%30.04 "HgN/A
4:00 PM61 °FBroken clouds.20 mph68%30.04 "HgN/A
3:30 PM61 °FBroken clouds.17 mph72%30.04 "HgN/A
3:00 PM61 °FBroken clouds.17 mph72%30.07 "HgN/A
2:30 PM59 °FBroken clouds.18 mph77%30.07 "HgN/A
2:00 PM59 °FBroken clouds.12 mph77%30.09 "HgN/A
1:30 PM57 °FPartly sunny.12 mph82%30.09 "HgN/A
1:00 PM55 °FPartly sunny.8 mph88%30.09 "HgN/A
12:30 PM55 °FPartly sunny.9 mph88%30.09 "HgN/A
12:00 PM54 °FPartly sunny.9 mph94%30.12 "HgN/A
11:30 AM52 °FLow clouds.10 mph94%30.12 "HgN/A
11:00 AM50 °FLow clouds.7 mph100%30.12 "Hg5 mi
10:30 AM50 °FLow clouds.7 mph100%30.12 "Hg4 mi
10:00 AM48 °FDrizzle. Low clouds.6 mph100%30.12 "Hg4 mi
9:30 AM48 °FDrizzle. Low clouds.5 mph94%30.12 "Hg1 mi
9:00 AM46 °FDrizzle. Low clouds.6 mph100%30.12 "Hg2 mi
8:30 AM46 °FDrizzle. Low clouds.6 mph100%30.15 "Hg3 mi
8:00 AM46 °FDrizzle. Mostly cloudy.5 mph100%30.15 "Hg3 mi
7:30 AM46 °FDrizzle. Mostly cloudy.8 mph93%30.15 "Hg2 mi
7:00 AM45 °FDrizzle. Low clouds.8 mph100%30.15 "Hg2 mi
Weather by CustomWeather, © 2015

See weather overviewHow to use our weather pages